FW7316 Weather Reports


time (UTC)temp
C
wind
direction
speed
KPH
gust
KPH
rain 1hr
cm
rain 24hr
cm
rain mn
cm
humidity
%
barometer
mb
20260506062500 14 131 4.8 14.5 0.00 1.78 0.91 96 1009.7
20260506062400 14 113 8.0 14.5 0.00 1.78 0.91 96 1009.6
20260506062306 14 119 6.4 14.5 0.00 1.78 0.91 96 1009.6
20260506062200 14 101 4.8 14.5 0.00 1.78 0.91 96 1009.7
20260506062100 14 136 8.0 14.5 0.00 1.78 0.91 96 1009.7
20260506062005 14 146 4.8 14.5 0.00 1.78 0.91 96 1009.7
20260506061902 14 141 6.4 14.5 0.00 1.78 0.91 96 1009.7
20260506061800 14 157 8.0 14.5 0.00 1.78 0.91 96 1009.7
20260506061705 14 143 6.4 14.5 0.00 1.78 0.91 96 1009.7
20260506061600 14 138 9.7 14.5 0.00 1.78 0.91 96 1009.8
20260506061502 14 122 8.0 12.9 0.00 1.78 0.91 96 1009.8
20260506061402 14 130 6.4 11.3 0.00 1.78 0.91 96 1009.8
20260506061259 14 142 9.7 11.3 0.00 1.78 0.91 96 1009.9
20260506061113 14 137 8.0 11.3 0.00 1.78 0.91 96 1009.9
20260506060858 14 140 6.4 8.0 0.03 1.78 0.91 96 1009.8
20260506060824 14 124 4.8 8.0 0.03 1.78 0.91 96 1009.8
20260506060713 14 119 6.4 8.0 0.03 1.78 0.91 96 1009.9
20260506060600 14 139 4.8 8.0 0.03 1.78 0.91 96 1009.9
20260506060504 14 135 3.2 8.0 0.03 1.78 0.91 96 1009.9
20260506060401 13 140 6.4 8.0 0.03 1.78 0.91 96 1009.9
20260506060203 13 142 3.2 6.4 0.03 1.78 0.91 96 1009.9
20260506060115 13 142 6.4 6.4 0.03 1.78 0.91 96 1009.9
20260506051403 13 156 3.2 8.0 0.20 1.85 0.91 96 1010.2
20260506051200 13 156 1.6 9.7 0.20 1.85 0.91 96 1010.2
20260506051102 13 156 4.8 9.7 0.20 1.85 0.91 96 1010.2
20260506051000 13 156 4.8 9.7 0.18 1.83 0.89 96 1010.3
20260506050900 13 156 3.2 9.7 0.18 1.83 0.89 96 1010.3
20260506050802 13 156 3.2 9.7 0.18 1.83 0.89 96 1010.3
20260506050700 13 157 4.8 9.7 0.18 1.83 0.89 96 1010.3
20260506050600 13 156 1.6 9.7 0.18 1.83 0.89 96 1010.3
20260506050504 13 146 4.8 9.7 0.18 1.83 0.89 96 1010.3
20260506050400 13 143 4.8 9.7 0.18 1.83 0.89 96 1010.3
20260506050300 13 142 6.4 9.7 0.18 1.83 0.89 95 1010.2
20260506050202 13 137 8.0 8.0 0.18 1.83 0.89 95 1010.2
20260506045100 13 224 6.4 6.4 0.15 1.80 0.84 95 1010.4
20260506045003 13 224 1.6 4.8 0.15 1.80 0.84 95 1010.4
20260506044859 13 224 1.6 9.7 0.15 1.80 0.84 95 1010.4
20260506044758 13 224 1.6 9.7 0.15 1.78 0.81 95 1010.4
20260506044602 13 224 0.0 9.7 0.15 1.78 0.81 95 1010.3
20260506044500 13 224 0.0 9.7 0.15 1.75 0.79 95 1010.3
20260506044300 13 224 0.0 9.7 0.15 1.75 0.79 95 1010.4
20260506044159 13 224 0.0 9.7 0.15 1.73 0.76 95 1010.4
20260506044103 13 224 1.6 9.7 0.15 1.73 0.76 95 1010.5
20260506044000 13 224 4.8 9.7 0.15 1.70 0.74 95 1010.5
20260506043900 13 224 8.0 9.7 0.15 1.70 0.74 95 1010.5
20260506043803 13 224 9.7 9.7 0.15 1.70 0.74 95 1010.5
20260506043600 13 231 4.8 6.4 0.18 1.70 0.74 95 1010.4
20260506043503 13 231 3.2 8.0 0.18 1.70 0.74 95 1010.4
20260506043400 13 231 1.6 8.0 0.20 1.70 0.74 95 1010.3
20260506043300 13 231 0.0 8.0 0.23 1.70 0.74 95 1010.3
20260506043202 13 231 1.6 8.0 0.23 1.70 0.74 95 1010.4
20260506043100 13 231 3.2 8.0 0.25 1.70 0.74 95 1010.5
20260506043001 13 231 3.2 8.0 0.28 1.70 0.74 95 1010.5
20260506042905 13 231 1.6 8.0 0.28 1.70 0.74 95 1010.5
20260506042801 13 231 3.2 8.0 0.33 1.70 0.74 95 1010.5
20260506042701 13 231 4.8 11.3 0.36 1.70 0.74 95 1010.5
20260506042500 13 231 6.4 11.3 0.48 1.70 0.74 95 1010.4
20260506042400 13 148 4.8 11.3 0.51 1.70 0.74 95 1010.5
20260506042305 12 84 0.0 11.3 0.51 1.70 0.74 95 1010.4
20260506042200 13 84 0.0 11.3 0.53 1.70 0.74 95 1010.4
20260506042100 13 84 1.6 11.3 0.56 1.70 0.74 95 1010.4
20260506042009 12 84 1.6 11.3 0.56 1.70 0.74 95 1010.4
20260506041900 12 84 3.2 11.3 0.56 1.70 0.74 95 1010.4
20260506041701 13 82 11.3 11.3 0.56 1.70 0.74 95 1010.3
20260506041602 12 80 11.3 11.3 0.56 1.70 0.74 95 1010.3
20260506041501 13 86 11.3 11.3 0.53 1.68 0.71 95 1010.3
20260506041403 13 80 9.7 9.7 0.53 1.68 0.71 95 1010.3
20260506041300 13 84 4.8 9.7 0.53 1.68 0.71 95 1010.4
20260506041201 13 284 1.6 14.5 0.53 1.68 0.71 95 1010.4
20260506041103 12 284 0.0 14.5 0.53 1.68 0.71 95 1010.4
20260506040803 12 284 6.4 16.1 0.53 1.68 0.71 95 1010.4
20260506040700 12 281 3.2 16.1 0.53 1.68 0.71 95 1010.4
20260506040600 12 264 6.4 16.1 0.53 1.68 0.71 95 1010.5
20260506040503 12 223 4.8 16.1 0.53 1.68 0.71 95 1010.7
20260506040404 12 223 9.7 16.1 0.53 1.68 0.71 95 1010.7
20260506040300 12 208 8.0 16.1 0.53 1.68 0.71 95 1010.8
20260506040202 12 194 11.3 16.1 0.53 1.68 0.71 95 1010.8
20260506040112 12 193 11.3 17.7 0.53 1.68 0.71 95 1010.7
20260506040005 13 178 11.3 17.7 0.53 1.68 0.71 95 1010.7
20260506035907 12 161 3.2 17.7 0.53 1.75 0.71 95 1010.7
20260506035800 13 138 6.4 17.7 0.53 1.75 0.71 95 1010.7
20260506035701 13 191 3.2 17.7 0.53 1.75 0.71 95 1010.7
20260506035603 13 191 4.8 17.7 0.53 1.75 0.71 95 1010.8
20260506035500 13 191 3.2 17.7 0.51 1.73 0.71 95 1010.9
20260506035400 13 236 6.4 17.7 0.51 1.73 0.71 95 1010.9
20260506035306 13 207 8.0 19.3 0.51 1.73 0.71 94 1010.9
20260506035200 13 215 14.5 19.3 0.51 1.73 0.71 95 1011.0
20260506035005 13 234 16.1 19.3 0.51 1.70 0.69 94 1010.9
20260506034900 13 247 12.9 19.3 0.51 1.70 0.69 94 1010.8
20260506034702 13 233 12.9 19.3 0.48 1.68 0.66 94 1010.8
20260506034600 13 227 11.3 19.3 0.48 1.68 0.66 94 1010.8
20260506034500 13 203 12.9 19.3 0.46 1.65 0.64 94 1010.8
20260506034200 13 209 11.3 17.7 0.43 1.65 0.61 94 1010.9
20260506034104 13 225 12.9 22.5 0.43 1.63 0.61 94 1010.8
20260506034003 13 221 14.5 22.5 0.43 1.63 0.61 94 1010.7
20260506033900 13 227 12.9 22.5 0.41 1.60 0.58 94 1010.8
20260506033802 13 240 11.3 22.5 0.41 1.60 0.58 94 1010.8
20260506033700 13 252 4.8 22.5 0.41 1.60 0.58 94 1010.8
20260506033600 13 233 8.0 22.5 0.38 1.57 0.56 94 1010.8
20260506033503 13 257 9.7 22.5 0.38 1.57 0.56 94 1010.8
20260506033358 13 237 4.8 22.5 0.36 1.55 0.53 94 1010.9
20260506033308 13 235 9.7 22.5 0.33 1.55 0.51 94 1010.9
20260506033206 13 240 14.5 22.5 0.33 1.52 0.51 94 1010.9
20260506033059 13 228 9.7 19.3 0.30 1.50 0.48 94 1010.8
20260506032903 13 267 6.4 19.3 0.28 1.47 0.46 94 1010.5
20260506032759 13 284 4.8 19.3 0.23 1.45 0.43 94 1010.4
20260506032700 14 276 8.0 19.3 0.20 1.40 0.38 94 1010.3
20260506032607 14 309 8.0 19.3 0.15 1.35 0.33 94 1010.3
20260506032500 14 296 8.0 19.3 0.08 1.27 0.25 95 1010.3
20260506032359 14 287 12.9 19.3 0.05 1.27 0.23 95 1010.4
20260506032305 14 287 11.3 19.3 0.05 1.27 0.23 95 1010.6
20260506032200 14 281 8.0 19.3 0.03 1.22 0.20 95 1010.7
20260506032100 14 271 8.0 16.1 0.00 1.19 0.18 95 1010.7
20260506031800 14 260 11.3 12.9 0.03 1.19 0.18 95 1010.4
20260506031702 14 248 6.4 8.0 0.03 1.19 0.18 95 1010.3
20260506031459 14 263 4.8 6.4 0.03 1.19 0.18 95 1010.0
20260506031403 14 290 3.2 6.4 0.05 1.19 0.18 95 1009.9
20260506031300 14 123 4.8 9.7 0.05 1.19 0.18 95 1009.9
20260506031200 14 123 1.6 9.7 0.05 1.19 0.18 95 1009.8
20260506031103 14 123 0.0 9.7 0.05 1.19 0.18 95 1009.7
20260506031000 14 123 0.0 9.7 0.05 1.19 0.18 95 1009.7
20260506030859 14 123 1.6 9.7 0.05 1.19 0.18 95 1009.7
20260506030802 14 123 1.6 9.7 0.05 1.19 0.18 95 1009.7
20260506030700 14 123 1.6 9.7 0.05 1.19 0.18 95 1009.6
20260506030559 14 123 4.8 9.7 0.05 1.19 0.18 95 1009.6
20260506030503 14 99 3.2 9.7 0.05 1.19 0.18 95 1009.6
20260506030400 14 99 1.6 9.7 0.05 1.19 0.18 95 1009.6
20260506030301 14 99 9.7 9.7 0.05 1.19 0.18 95 1009.6
20260506030203 14 98 8.0 8.0 0.05 1.19 0.18 95 1009.6
20260506030100 14 101 4.8 6.4 0.05 1.19 0.18 95 1009.6
20260506025700 14 77 4.8 6.4 0.05 1.19 0.18 95 1009.5
20260506025601 14 72 6.4 6.4 0.05 1.19 0.18 95 1009.6
20260506025500 14 201 3.2 6.4 0.05 1.19 0.18 95 1009.6
20260506025400 14 201 4.8 6.4 0.05 1.19 0.18 95 1009.6
20260506025209 14 201 3.2 6.4 0.05 1.19 0.18 95 1009.7
20260506025004 14 201 3.2 6.4 0.05 1.19 0.18 95 1009.8
20260506024859 14 201 4.8 6.4 0.05 1.19 0.18 95 1009.7
20260506024702 14 201 4.8 6.4 0.05 1.19 0.18 95 1009.8
20260506024600 14 201 4.8 4.8 0.05 1.19 0.18 95 1009.8
20260506024500 14 201 3.2 6.4 0.05 1.19 0.18 95 1009.8
20260506024407 14 201 3.2 6.4 0.05 1.19 0.18 94 1009.8
20260506024300 14 201 4.8 6.4 0.05 1.19 0.18 95 1009.8
20260506024159 14 201 3.2 6.4 0.05 1.19 0.18 94 1009.9
20260506024102 14 201 3.2 6.4 0.05 1.19 0.18 94 1009.9
20260506024001 14 201 1.6 6.4 0.05 1.19 0.18 94 1009.9
20260506023859 14 201 1.6 6.4 0.05 1.19 0.18 94 1009.9
20260506023659 14 201 3.2 6.4 0.05 1.19 0.18 94 1009.9
20260506023558 14 201 3.2 6.4 0.05 1.19 0.18 94 1009.9
20260506023502 14 201 6.4 6.4 0.05 1.19 0.18 94 1009.9
20260506023300 14 201 3.2 6.4 0.05 1.19 0.18 94 1010.0
20260506023203 14 201 4.8 6.4 0.05 1.19 0.18 94 1010.0
20260506023100 14 201 4.8 6.4 0.05 1.19 0.18 94 1010.0
20260506023000 14 201 4.8 6.4 0.05 1.19 0.18 94 1010.0
20260506022904 14 201 4.8 6.4 0.05 1.19 0.18 94 1010.0
20260506022800 14 201 3.2 6.4 0.05 1.19 0.18 94 1010.1
20260506022659 14 201 0.0 8.0 0.05 1.19 0.18 94 1010.2
20260506022602 14 201 0.0 8.0 0.05 1.19 0.18 94 1010.1
20260506022500 14 201 0.0 9.7 0.05 1.19 0.18 94 1010.2
20260506022400 14 201 1.6 11.3 0.05 1.19 0.18 94 1010.2
20260506022306 14 201 1.6 11.3 0.05 1.19 0.18 94 1010.2
20260506022200 14 201 0.0 11.3 0.05 1.19 0.18 94 1010.3
20260506022059 14 201 4.8 12.9 0.05 1.19 0.18 94 1010.3
20260506022006 14 201 3.2 12.9 0.05 1.19 0.18 94 1010.3
20260506021801 14 201 6.4 12.9 0.03 1.17 0.15 94 1010.5
20260506021602 14 231 4.8 12.9 0.03 1.17 0.15 95 1010.5
20260506021501 14 252 8.0 12.9 0.03 1.17 0.15 95 1010.5
20260506021404 14 253 6.4 12.9 0.00 1.17 0.15 95 1010.5
20260506021300 14 234 8.0 14.5 0.00 1.17 0.15 95 1010.6
20260506021200 14 246 11.3 14.5 0.00 1.17 0.15 95 1010.6
20260506021103 14 237 9.7 14.5 0.03 1.17 0.15 95 1010.5
20260506020901 14 277 4.8 14.5 0.03 1.17 0.15 95 1010.4
20260506020804 14 284 4.8 14.5 0.03 1.17 0.15 95 1010.4
20260506020503 14 256 4.8 14.5 0.03 1.17 0.15 94 1010.5
20260506020400 15 261 9.7 14.5 0.03 1.17 0.15 94 1010.7
20260506020204 15 315 12.9 14.5 0.03 1.17 0.15 95 1010.8
20260506020115 15 280 6.4 14.5 0.03 1.17 0.15 95 1010.8
20260506020005 15 286 8.0 14.5 0.03 1.17 0.15 95 1011.0
20260506015902 15 261 12.9 12.9 0.03 1.17 0.15 95 1011.0
20260506015759 15 246 11.3 12.9 0.03 1.17 0.15 95 1011.0
20260506015500 15 285 9.7 12.9 0.03 1.17 0.15 95 1010.9
20260506015400 15 287 12.9 12.9 0.03 1.17 0.15 95 1010.8
20260506015305 15 261 12.9 12.9 0.03 1.17 0.15 95 1010.7
20260506015200 15 279 6.4 11.3 0.03 1.17 0.15 95 1010.6
20260506015059 15 273 6.4 9.7 0.03 1.17 0.15 95 1010.5
20260506015004 15 281 6.4 9.7 0.03 1.17 0.15 95 1010.5
20260506014759 15 317 4.8 9.7 0.03 1.17 0.15 95 1010.4
20260506014703 15 317 4.8 9.7 0.03 1.17 0.15 95 1010.4
20260506014559 15 317 4.8 9.7 0.03 1.17 0.15 95 1010.4
20260506014502 15 317 4.8 9.7 0.03 1.17 0.15 95 1010.4
20260506014202 15 317 4.8 9.7 0.03 1.17 0.15 94 1010.4
20260506014102 15 317 3.2 9.7 0.03 1.17 0.15 94 1010.4
20260506014005 15 324 6.4 8.0 0.03 1.17 0.15 95 1010.4
20260506013900 15 323 4.8 8.0 0.03 1.17 0.15 95 1010.3
20260506013804 15 324 6.4 8.0 0.03 1.17 0.15 95 1010.3
20260506013700 15 328 6.4 6.4 0.05 1.17 0.15 95 1010.2
20260506013559 15 316 4.8 6.4 0.05 1.17 0.15 95 1010.2
20260506013506 15 316 4.8 6.4 0.05 1.17 0.15 95 1010.2
20260506013359 15 316 3.2 6.4 0.08 1.17 0.15 95 1010.3
20260506013300 15 316 4.8 6.4 0.08 1.17 0.15 95 1010.4
20260506013203 15 355 4.8 6.4 0.08 1.17 0.15 95 1010.4
20260506013101 15 355 3.2 4.8 0.08 1.17 0.15 95 1010.5
20260506013000 15 355 3.2 4.8 0.08 1.17 0.15 95 1010.5
20260506012902 15 355 4.8 4.8 0.08 1.17 0.15 95 1010.5
20260506012800 15 355 4.8 4.8 0.10 1.17 0.15 95 1010.5
20260506012700 15 355 1.6 3.2 0.13 1.17 0.15 95 1010.5
20260506012606 15 355 3.2 3.2 0.13 1.17 0.15 95 1010.5
20260506012459 15 355 3.2 3.2 0.13 1.17 0.15 94 1010.5
20260506012400 15 355 3.2 3.2 0.13 1.17 0.15 95 1010.4
20260506012307 15 355 3.2 3.2 0.13 1.17 0.15 94 1010.4
20260506012159 15 355 1.6 3.2 0.13 1.17 0.15 95 1010.4
20260506012058 15 355 1.6 3.2 0.13 1.17 0.15 94 1010.4
20260506011900 15 355 3.2 3.2 0.13 1.17 0.15 94 1010.3
20260506011759 15 355 1.6 3.2 0.13 1.17 0.15 94 1010.3
20260506011702 15 355 0.0 4.8 0.13 1.17 0.15 95 1010.4
20260506011600 15 355 0.0 4.8 0.13 1.17 0.15 95 1010.4
20260506011500 15 355 0.0 4.8 0.13 1.17 0.15 95 1010.5
20260506011200 15 355 1.6 4.8 0.13 1.17 0.15 94 1010.5
20260506011102 15 355 0.0 4.8 0.10 1.14 0.13 94 1010.5
20260506011001 15 355 0.0 4.8 0.10 1.14 0.13 94 1010.5
20260506010859 15 355 1.6 4.8 0.10 1.14 0.13 94 1010.6
20260506010802 15 355 3.2 4.8 0.10 1.14 0.13 94 1010.5
20260506010701 15 355 3.2 4.8 0.10 1.14 0.13 94 1010.5
20260506010600 15 355 1.6 3.2 0.10 1.14 0.13 94 1010.5
20260506010505 15 355 1.6 3.2 0.10 1.14 0.13 94 1010.5
20260506010400 15 355 1.6 3.2 0.10 1.14 0.13 94 1010.4
20260506010203 15 355 1.6 3.2 0.10 1.14 0.13 94 1010.5
20260506005800 15 355 0.0 6.4 0.10 1.14 0.13 94 1010.5
20260506005659 15 355 1.6 6.4 0.10 1.14 0.13 94 1010.5
20260506005602 15 355 1.6 6.4 0.10 1.14 0.13 94 1010.5
20260506005500 15 355 1.6 6.4 0.10 1.14 0.13 94 1010.5
20260506005400 15 355 1.6 6.4 0.10 1.14 0.13 94 1010.5
20260506005305 15 355 3.2 6.4 0.10 1.14 0.13 94 1010.6
20260506005159 15 355 3.2 8.0 0.10 1.14 0.13 94 1010.6
20260506005003 15 341 6.4 8.0 0.10 1.14 0.13 94 1010.6
20260506004900 15 341 4.8 8.0 0.10 1.14 0.13 94 1010.6
20260506004702 15 341 3.2 8.0 0.10 1.14 0.13 94 1010.6
20260506004600 15 341 1.6 8.0 0.10 1.14 0.13 94 1010.6
20260506004500 15 341 3.2 8.0 0.10 1.14 0.13 94 1010.6
20260506004402 15 341 1.6 8.0 0.10 1.14 0.13 94 1010.6
20260506004259 15 341 4.8 8.0 0.10 1.14 0.13 94 1010.7
20260506004200 15 267 3.2 4.8 0.10 1.14 0.13 94 1010.7
20260506004102 15 267 0.0 4.8 0.10 1.14 0.13 94 1010.7
20260506004001 15 267 1.6 6.4 0.10 1.14 0.13 94 1010.7
20260506003859 15 267 3.2 6.4 0.10 1.14 0.13 94 1010.7
20260506003803 15 267 3.2 6.4 0.10 1.14 0.13 94 1010.8
20260506003658 15 267 1.6 6.4 0.08 1.12 0.10 94 1010.9
20260506003502 15 267 0.0 6.4 0.05 1.09 0.08 94 1011.0
20260506003401 15 267 4.8 6.4 0.05 1.09 0.05 94 1010.9
20260506003259 15 267 4.8 6.4 0.05 1.09 0.05 94 1010.9
20260506003202 15 267 4.8 6.4 0.05 1.09 0.05 94 1010.9
20260506003000 15 267 4.8 6.4 0.05 1.09 0.05 94 1010.9
20260506002800 15 267 3.2 4.8 0.03 1.07 0.05 94 1010.9
20260506002602 15 267 3.2 4.8 0.00 1.04 0.03 94 1010.9
20260506002500 15 267 4.8 4.8 0.00 1.04 0.03 94 1010.9
20260506002401 15 267 3.2 4.8 0.00 1.04 0.03 94 1010.9
20260506002306 15 267 4.8 4.8 0.00 1.04 0.03 94 1010.9
20260506002159 15 267 3.2 4.8 0.00 1.04 0.03 94 1010.9
20260506002059 15 267 1.6 4.8 0.00 1.04 0.03 94 1010.9
20260506002003 15 267 1.6 4.8 0.00 1.04 0.03 94 1010.8
20260506001859 15 267 1.6 4.8 0.00 1.04 0.03 94 1010.9
20260506001702 15 267 3.2 6.4 0.00 1.04 0.03 94 1010.9
20260506001559 15 267 0.0 6.4 0.00 1.04 0.03 94 1010.9
20260506001402 15 267 3.2 6.4 0.00 1.04 0.03 94 1011.0
20260506001300 15 267 0.0 6.4 0.00 1.04 0.03 94 1010.9
20260506001159 15 267 1.6 6.4 0.00 1.04 0.03 94 1011.0
20260506001102 15 267 1.6 6.4 0.00 1.04 0.03 94 1011.0
20260506001000 15 267 3.2 6.4 0.00 1.04 0.03 94 1010.9
20260506000900 15 267 3.2 6.4 0.00 1.04 0.03 94 1011.0
20260506000700 15 277 3.2 6.4 0.00 1.04 0.03 94 1010.9
20260506000600 15 277 3.2 6.4 0.00 1.04 0.03 94 1010.9
20260506000401 15 277 3.2 6.4 0.00 1.04 0.03 94 1010.9
20260506000302 15 126 3.2 4.8 0.00 1.04 0.03 94 1010.9
20260506000204 15 126 3.2 6.4 0.00 1.04 0.03 94 1010.9
20260506000113 14 126 3.2 6.4 0.00 1.04 0.03 94 1010.9
20260506000005 14 126 3.2 6.4 0.00 1.04 0.03 94 1010.9
20260505235902 14 126 1.6 6.4 0.00 1.04 0.03 94 1010.9
20260505235759 14 126 3.2 6.4 0.00 1.04 0.03 94 1010.9
20260505235659 14 126 1.6 6.4 0.00 1.04 0.03 93 1010.9
20260505235603 14 126 1.6 6.4 0.00 1.04 0.03 93 1010.9
20260505235500 14 126 0.0 6.4 0.00 1.04 0.03 93 1010.9
20260505235400 14 126 0.0 6.4 0.00 1.04 0.03 93 1010.9
20260505235305 14 126 1.6 6.4 0.00 1.04 0.03 93 1010.9
20260505235200 14 126 4.8 8.0 0.00 1.04 0.03 93 1010.9
20260505235100 14 126 4.8 8.0 0.00 1.04 0.03 93 1010.8
20260505235003 14 126 4.8 8.0 0.00 1.04 0.03 93 1010.8
20260505234759 14 126 0.0 8.0 0.00 1.04 0.03 93 1010.7
20260505234702 14 126 0.0 8.0 0.00 1.04 0.03 93 1010.7
20260505234500 14 126 1.6 8.0 0.00 1.04 0.03 93 1010.7
20260505234402 14 126 6.4 8.0 0.00 1.04 0.03 93 1010.8
20260505234300 14 126 4.8 8.0 0.00 1.04 0.03 93 1010.9
20260505234159 14 126 6.4 6.4 0.00 1.04 0.03 93 1010.9
20260505234102 14 126 4.8 6.4 0.00 1.04 0.03 93 1010.9
20260505233900 14 126 6.4 6.4 0.00 1.04 0.03 93 1011.0
20260505233802 14 126 4.8 6.4 0.00 1.04 0.03 93 1011.0
20260505233659 14 126 4.8 6.4 0.00 1.04 0.03 93 1011.0
20260505233559 14 126 4.8 6.4 0.00 1.04 0.03 93 1011.0
20260505233503 14 126 4.8 6.4 0.00 1.04 0.03 93 1011.0
20260505233300 15 126 4.8 6.4 0.00 1.04 0.03 93 1011.0
20260505233202 15 126 4.8 6.4 0.00 1.04 0.03 93 1010.9
20260505233100 15 126 6.4 9.7 0.00 1.04 0.03 93 1010.9
20260505233000 15 126 4.8 9.7 0.00 1.04 0.03 93 1010.9
20260505232902 15 126 1.6 9.7 0.00 1.04 0.03 93 1010.9
20260505232759 15 126 1.6 9.7 0.00 1.04 0.03 93 1010.9
20260505232700 15 126 3.2 9.7 0.00 1.04 0.03 93 1010.9
20260505232603 15 126 4.8 9.7 0.00 1.04 0.03 93 1010.9
20260505232500 15 126 3.2 9.7 0.00 1.04 0.03 93 1010.9
20260505232359 15 126 1.6 9.7 0.00 1.04 0.03 93 1010.9
20260505232305 15 126 1.6 9.7 0.00 1.04 0.03 93 1010.9
20260505232159 15 126 6.4 9.7 0.00 1.04 0.03 93 1011.0
20260505232100 15 126 6.4 8.0 0.00 1.04 0.03 93 1011.0
20260505232003 15 126 6.4 6.4 0.00 1.04 0.03 93 1011.0
20260505231859 15 126 6.4 6.4 0.00 1.04 0.03 92 1011.0
20260505231759 15 126 4.8 6.4 0.00 1.04 0.03 92 1011.0
20260505231702 15 126 3.2 4.8 0.00 1.04 0.03 92 1011.0
20260505231500 15 126 3.2 3.2 0.00 1.04 0.03 93 1011.0
20260505231403 15 126 1.6 3.2 0.00 1.04 0.03 92 1011.0
20260505231300 15 126 3.2 3.2 0.00 1.04 0.03 92 1011.0
20260505231159 15 126 1.6 3.2 0.00 1.04 0.03 92 1011.0
20260505231102 15 126 0.0 1.6 0.03 1.04 0.03 92 1011.0
20260505231000 15 126 0.0 1.6 0.03 1.04 0.03 93 1010.9
20260505230802 15 126 1.6 1.6 0.03 1.04 0.03 92 1010.9
20260505230700 15 126 1.6 1.6 0.03 1.04 0.03 92 1010.9
20260505230600 15 126 1.6 1.6 0.03 1.04 0.03 92 1010.9
20260505230503 15 126 1.6 3.2 0.03 1.04 0.03 92 1010.9
20260505230359 15 126 1.6 3.2 0.03 1.04 0.03 92 1010.9
20260505230259 15 126 0.0 3.2 0.03 1.04 0.03 92 1011.0
20260505230059 15 126 1.6 3.2 0.03 1.04 0.03 92 1010.9
20260505230005 15 126 0.0 3.2 0.03 1.04 0.03 92 1011.0
20260505225903 15 126 1.6 3.2 0.03 1.04 0.03 92 1011.0
20260505225759 15 126 1.6 3.2 0.03 1.04 0.03 92 1011.0
20260505225700 15 126 0.0 3.2 0.03 1.04 0.03 92 1011.0
20260505225602 15 126 1.6 3.2 0.03 1.04 0.03 92 1011.0
20260505225459 15 126 3.2 6.4 0.03 1.04 0.03 92 1011.0
20260505225305 15 126 3.2 6.4 0.03 1.04 0.03 92 1011.1
20260505225158 15 126 0.0 6.4 0.03 1.04 0.03 92 1011.1
20260505225004 15 126 1.6 6.4 0.03 1.04 0.03 92 1011.1
20260505224859 15 126 3.2 6.4 0.03 1.04 0.03 92 1011.2
20260505224703 15 126 1.6 8.0 0.03 1.04 0.03 92 1011.2
20260505224559 15 126 3.2 8.0 0.03 1.04 0.03 92 1011.1
20260505224458 15 126 4.8 8.0 0.03 1.04 0.03 92 1011.1
20260505224300 15 126 4.8 8.0 0.03 1.04 0.03 92 1011.2
20260505224200 15 126 4.8 8.0 0.03 1.04 0.03 92 1011.2
20260505224102 15 126 4.8 8.0 0.03 1.04 0.03 92 1011.2
20260505224000 15 126 4.8 8.0 0.03 1.04 0.03 92 1011.2
20260505223859 15 126 4.8 8.0 0.03 1.04 0.03 92 1011.1
20260505223802 15 128 6.4 8.0 0.03 1.04 0.03 92 1011.1
20260505223600 15 111 6.4 9.7 0.03 1.04 0.03 92 1011.1
20260505223502 15 90 8.0 9.7 0.03 1.04 0.03 92 1011.2
20260505223359 15 90 4.8 9.7 0.03 1.04 0.03 92 1011.2
20260505223259 15 90 3.2 9.7 0.03 1.04 0.03 91 1011.2
20260505223202 15 90 8.0 9.7 0.03 1.04 0.03 91 1011.2
20260505223001 15 90 4.8 9.7 0.03 1.04 0.03 91 1011.2
20260505222903 15 90 4.8 9.7 0.03 1.04 0.03 91 1011.2
20260505222800 15 90 4.8 9.7 0.03 1.04 0.03 91 1011.2
20260505222659 15 90 4.8 9.7 0.03 1.04 0.03 91 1011.3
20260505222500 15 90 4.8 9.7 0.03 1.04 0.03 91 1011.3
20260505222305 15 90 4.8 9.7 0.03 1.04 0.03 91 1011.4
20260505222159 15 90 8.0 8.0 0.03 1.04 0.03 91 1011.4
20260505222059 15 90 8.0 8.0 0.03 1.04 0.03 91 1011.4
20260505222004 15 90 4.8 8.0 0.03 1.04 0.03 91 1011.4
20260505221900 15 90 3.2 4.8 0.03 1.04 0.03 91 1011.4
20260505221702 15 90 3.2 4.8 0.03 1.04 0.03 91 1011.4
20260505221600 15 90 3.2 4.8 0.03 1.04 0.03 91 1011.4
20260505221500 15 90 3.2 4.8 0.03 1.04 0.03 91 1011.4
20260505221403 15 90 4.8 4.8 0.03 1.04 0.03 91 1011.4
20260505221300 15 90 4.8 4.8 0.03 1.04 0.03 91 1011.4
20260505221000 15 90 3.2 4.8 0.00 1.02 0.00 91 1011.5
20260505220900 15 90 3.2 8.0 0.00 1.02 0.00 91 1011.5
20260505220659 15 90 3.2 8.0 0.00 1.02 0.00 91 1011.5
20260505220559 15 90 3.2 8.0 0.00 1.02 0.00 91 1011.6
20260505220400 15 90 1.6 8.0 0.00 1.02 0.00 90 1011.6
20260505220301 15 90 1.6 8.0 0.00 1.02 0.00 90 1011.6
20260505220115 15 90 1.6 8.0 0.00 1.02 0.00 90 1011.7
20260505220006 15 90 4.8 8.0 0.00 1.02 0.00 90 1011.7
20260505215800 15 90 8.0 8.0 0.00 1.02 1.02 90 1011.7
20260505215700 15 90 4.8 8.0 0.00 1.02 1.02 90 1011.7
20260505215400 15 90 0.0 4.8 0.00 1.02 1.02 90 1011.7
20260505215305 15 90 1.6 4.8 0.00 1.02 1.02 90 1011.6
20260505215200 15 90 0.0 4.8 0.00 1.02 1.02 90 1011.7
20260505215101 15 90 0.0 4.8 0.00 1.02 1.02 90 1011.7
20260505215004 15 90 3.2 4.8 0.00 1.02 1.02 90 1011.7
20260505214901 15 90 1.6 4.8 0.00 1.02 1.02 90 1011.7
20260505214702 15 90 3.2 4.8 0.00 1.02 1.02 90 1011.7
20260505214601 15 90 4.8 4.8 0.00 1.02 1.02 90 1011.7
20260505214501 15 90 4.8 8.0 0.00 1.02 1.02 90 1011.7
20260505214403 15 90 1.6 8.0 0.00 1.02 1.02 90 1011.7
20260505214301 15 90 1.6 8.0 0.00 1.02 1.02 90 1011.7
20260505214200 15 90 3.2 8.0 0.00 1.02 1.02 90 1011.7
20260505214001 15 90 1.6 8.0 0.00 1.02 1.02 89 1011.7
20260505213900 15 90 1.6 8.0 0.00 1.02 1.02 89 1011.7
20260505213803 15 90 0.0 8.0 0.00 1.02 1.02 89 1011.7
20260505213700 15 90 3.2 8.0 0.00 1.02 1.02 89 1011.8
20260505213504 15 90 4.8 8.0 0.00 1.02 1.02 89 1011.8
20260505213401 15 90 3.2 4.8 0.00 1.02 1.02 89 1011.7
20260505213301 15 90 1.6 4.8 0.00 1.02 1.02 89 1011.8
20260505213203 15 90 0.0 4.8 0.00 1.02 1.02 89 1011.7
20260505213101 15 90 1.6 4.8 0.00 1.02 1.02 89 1011.8
20260505213002 15 90 3.2 4.8 0.00 1.02 1.02 89 1011.8
20260505212903 15 90 0.0 4.8 0.00 1.02 1.02 89 1011.7
20260505212700 15 90 3.2 4.8 0.00 1.02 1.02 89 1011.7
20260505212501 15 90 3.2 9.7 0.00 1.02 1.02 89 1011.7
20260505212401 15 90 3.2 9.7 0.00 1.02 1.02 89 1011.7
20260505212159 15 90 4.8 11.3 0.00 1.02 1.02 88 1011.7
20260505212100 15 90 3.2 11.3 0.00 1.02 1.02 88 1011.7
20260505212004 15 90 3.2 11.3 0.00 1.02 1.02 88 1011.6
20260505211900 15 90 1.6 11.3 0.00 1.02 1.02 88 1011.7
20260505211800 16 90 3.2 11.3 0.00 1.02 1.02 88 1011.7
20260505211703 16 90 3.2 11.3 0.00 1.02 1.02 88 1011.7
20260505211600 16 90 3.2 11.3 0.00 1.02 1.02 88 1011.7
20260505211301 16 90 9.7 11.3 0.00 1.02 1.02 88 1011.7
20260505211200 16 90 8.0 11.3 0.00 1.02 1.02 88 1011.7
20260505211103 16 90 8.0 11.3 0.00 1.02 1.02 88 1011.7
20260505211001 16 90 8.0 11.3 0.00 1.02 1.02 88 1011.7
20260505210900 16 90 9.7 11.3 0.00 1.02 1.02 88 1011.7
20260505210803 16 90 8.0 11.3 0.00 1.02 1.02 88 1011.7
20260505210700 16 90 8.0 11.3 0.00 1.02 1.02 88 1011.7
20260505210503 16 90 1.6 11.3 0.00 1.02 1.02 88 1011.7
20260505210400 16 90 0.0 11.3 0.00 1.02 1.02 88 1011.7
20260505210301 16 90 1.6 12.9 0.00 1.02 1.02 88 1011.7
20260505210203 16 90 3.2 12.9 0.00 1.02 1.02 88 1011.8
20260505210001 16 90 9.7 12.9 0.00 1.02 1.02 88 1011.7
20260505205904 16 90 9.7 12.9 0.00 1.02 1.02 88 1011.7
20260505205800 16 90 9.7 12.9 0.00 1.02 1.02 88 1011.7
20260505205605 16 90 9.7 12.9 0.00 1.02 1.02 88 1011.7
20260505205501 16 84 8.0 12.9 0.00 1.02 1.02 88 1011.7
20260505205401 16 84 9.7 12.9 0.00 1.02 1.02 88 1011.7
20260505205306 16 75 11.3 12.9 0.00 1.02 1.02 88 1011.6
20260505205201 16 71 8.0 12.9 0.00 1.02 1.02 88 1011.6
20260505205101 16 71 11.3 12.9 0.00 1.02 1.02 87 1011.6
20260505205004 16 82 11.3 11.3 0.00 1.02 1.02 88 1011.6
20260505204900 16 67 4.8 9.7 0.00 1.02 1.02 87 1011.6
20260505204800 16 63 6.4 8.0 0.00 1.02 1.02 87 1011.6
20260505204703 16 60 6.4 8.0 0.00 1.02 1.02 87 1011.6
20260505204501 16 37 4.8 6.4 0.00 1.02 1.02 87 1011.6
20260505204403 16 58 4.8 6.4 0.00 1.02 1.02 87 1011.5
20260505204259 16 58 4.8 6.4 0.00 1.02 1.02 87 1011.5
20260505203803 16 114 3.2 4.8 0.00 1.02 1.02 87 1011.6
20260505203700 16 114 1.6 4.8 0.00 1.02 1.02 87 1011.5
20260505203601 16 114 1.6 4.8 0.00 1.02 1.02 87 1011.6
20260505203504 16 114 3.2 4.8 0.00 1.02 1.02 87 1011.5
20260505203400 16 114 3.2 4.8 0.00 1.02 1.02 89 1011.6
20260505203303 16 144 3.2 4.8 0.00 1.02 1.02 86 1011.6
20260505203103 16 144 1.6 3.2 0.00 1.02 1.02 86 1011.5
20260505203002 16 144 1.6 3.2 0.00 1.02 1.02 86 1011.6
20260505202801 16 144 0.0 3.2 0.00 1.02 1.02 86 1011.6
20260505202701 16 144 1.6 3.2 0.00 1.02 1.02 86 1011.5
20260505202607 16 144 1.6 3.2 0.00 1.02 1.02 86 1011.5
20260505202502 16 136 1.6 3.2 0.00 1.02 1.02 86 1011.6
20260505202401 16 136 0.0 4.8 0.00 1.02 1.02 86 1011.6
20260505202308 16 136 0.0 6.4 0.00 1.02 1.02 86 1011.6
20260505202202 16 136 1.6 6.4 0.00 1.02 1.02 86 1011.5
20260505202101 16 128 3.2 6.4 0.00 1.02 1.02 86 1011.5
20260505202006 16 128 1.6 6.4 0.00 1.02 1.02 86 1011.5
20260505201901 16 128 3.2 8.0 0.00 1.02 1.02 86 1011.5
20260505201602 16 128 1.6 8.0 0.00 1.02 1.02 86 1011.5
20260505201501 16 128 1.6 8.0 0.00 1.02 1.02 86 1011.5
20260505201302 16 130 4.8 11.3 0.00 1.02 1.02 86 1011.5
20260505201202 16 130 4.8 11.3 0.00 1.02 1.02 86 1011.5
20260505201105 16 130 4.8 11.3 0.00 1.02 1.02 86 1011.5
20260505200902 16 133 6.4 14.5 0.00 1.02 1.02 87 1011.4
20260505200806 16 142 4.8 14.5 0.00 1.02 1.02 87 1011.3
20260505200703 16 133 4.8 14.5 0.00 1.02 1.02 87 1011.4
20260505200601 16 180 1.6 14.5 0.00 1.02 1.02 87 1011.4
20260505200507 16 180 8.0 14.5 0.00 1.02 1.02 88 1011.4
20260505200206 16 176 3.2 14.5 0.00 1.02 1.02 88 1011.4
20260505200005 16 182 4.8 14.5 0.00 1.02 1.02 89 1011.5
20260505195906 16 187 3.2 14.5 0.00 1.02 1.02 89 1011.5
20260505195703 16 159 6.4 11.3 0.00 1.02 1.02 89 1011.5
20260505195606 16 192 6.4 11.3 0.00 1.02 1.02 89 1011.5
20260505195502 16 213 3.2 11.3 0.00 1.02 1.02 89 1011.5
20260505195402 16 198 4.8 11.3 0.00 1.02 1.02 89 1011.5
20260505195308 16 198 3.2 11.3 0.00 1.02 1.02 89 1011.5
20260505195201 16 198 4.8 11.3 0.00 1.02 1.02 89 1011.5
20260505195102 16 198 3.2 11.3 0.00 1.02 1.02 89 1011.5
20260505194804 16 188 0.0 11.3 0.00 1.02 1.02 89 1011.5
20260505194706 16 189 6.4 11.3 0.00 1.02 1.02 89 1011.5
20260505194601 16 194 8.0 11.3 0.00 1.02 1.02 89 1011.5
20260505194504 16 180 3.2 8.0 0.00 1.02 1.02 89 1011.5
20260505194302 16 136 3.2 4.8 0.00 1.02 1.02 89 1011.5
20260505194203 16 136 3.2 4.8 0.00 1.02 1.02 89 1011.5
20260505194107 16 13 1.6 3.2 0.00 1.02 1.02 89 1011.5
20260505194002 16 13 0.0 3.2 0.00 1.02 1.02 88 1011.4
20260505193901 16 13 0.0 3.2 0.00 1.02 1.02 88 1011.4
20260505193808 16 13 1.6 3.2 0.00 1.02 1.02 88 1011.4
20260505193702 16 13 1.6 3.2 0.00 1.02 1.02 88 1011.3
20260505193521 16 13 0.0 4.8 0.00 1.02 1.02 88 1011.3
20260505193402 16 13 0.0 4.8 0.00 1.02 1.02 88 1011.3
20260505193301 16 13 1.6 4.8 0.00 1.02 1.02 88 1011.3
20260505193208 16 13 3.2 4.8 0.00 1.02 1.02 88 1011.3
20260505193101 16 13 3.2 4.8 0.00 1.02 1.02 88 1011.3
20260505193003 16 13 1.6 4.8 0.00 1.02 1.02 87 1011.3
20260505192803 16 13 1.6 4.8 0.00 1.02 1.02 87 1011.2
20260505192701 16 13 3.2 4.8 0.00 1.02 1.02 87 1011.2
20260505192606 16 13 4.8 4.8 0.00 1.02 1.02 87 1011.2
20260505192501 16 13 3.2 4.8 0.00 1.02 1.02 87 1011.2
20260505192201 16 13 1.6 4.8 0.00 1.02 1.02 87 1011.2
20260505192006 16 13 3.2 4.8 0.00 1.02 1.02 87 1011.2
20260505191902 16 13 1.6 4.8 0.00 1.02 1.02 87 1011.2
20260505191800 16 13 1.6 4.8 0.00 1.02 1.02 87 1011.1
20260505191601 16 13 1.6 4.8 0.00 1.02 1.02 87 1011.1
20260505191404 16 13 1.6 4.8 0.00 1.02 1.02 86 1011.0
20260505191200 16 13 1.6 4.8 0.00 1.02 1.02 86 1011.0
20260505191103 16 13 3.2 4.8 0.00 1.02 1.02 86 1011.0
20260505191004 16 13 4.8 4.8 0.00 1.02 1.02 86 1011.0
20260505190859 16 305 3.2 4.8 0.00 1.02 1.02 86 1011.0
20260505190701 16 305 3.2 4.8 0.00 1.02 1.02 86 1011.0
20260505190601 17 305 4.8 4.8 0.00 1.02 1.02 86 1011.0
20260505190506 17 305 3.2 3.2 0.00 1.02 1.02 86 1011.0
20260505190401 17 305 1.6 3.2 0.00 1.02 1.02 86 1010.9
20260505190301 17 305 1.6 3.2 0.00 1.02 1.02 86 1010.9
20260505190205 17 305 1.6 3.2 0.00 1.02 1.02 86 1010.9
20260505190005 17 305 1.6 3.2 0.00 1.02 1.02 86 1010.8
20260505185801 17 305 1.6 3.2 0.00 1.02 1.02 86 1010.8
20260505185701 17 305 3.2 4.8 0.00 1.02 1.02 85 1010.9
20260505185605 17 305 1.6 4.8 0.00 1.02 1.02 85 1010.9
20260505185501 17 305 3.2 4.8 0.00 1.02 1.02 85 1010.8
20260505185401 17 305 1.6 4.8 0.00 1.02 1.02 85 1010.8
20260505185305 17 305 0.0 4.8 0.00 1.02 1.02 85 1010.8
20260505185200 17 305 0.0 4.8 0.00 1.02 1.02 85 1010.8
20260505185100 17 305 0.0 4.8 0.00 1.02 1.02 85 1010.7
20260505185005 17 305 1.6 4.8 0.00 1.02 1.02 85 1010.7
20260505184703 17 305 3.2 4.8 0.00 1.02 1.02 84 1010.8
20260505184601 17 151 0.0 4.8 0.00 1.02 1.02 84 1010.7
20260505184302 17 151 3.2 4.8 0.00 1.02 1.02 83 1010.7
20260505184201 17 151 3.2 4.8 0.00 1.02 1.02 83 1010.7
20260505184104 17 151 0.0 4.8 0.00 1.02 1.02 83 1010.7
20260505184000 17 151 1.6 4.8 0.00 1.02 1.02 83 1010.6
20260505183901 17 151 4.8 4.8 0.00 1.02 1.02 83 1010.7
20260505183804 17 172 3.2 4.8 0.00 1.02 1.02 83 1010.7
20260505183701 17 172 1.6 4.8 0.00 1.02 1.02 83 1010.7
20260505183401 17 172 1.6 4.8 0.00 1.02 1.02 83 1010.7
20260505183304 17 172 1.6 4.8 0.00 1.02 1.02 83 1010.6
20260505183204 17 172 1.6 4.8 0.00 1.02 1.02 83 1010.6
20260505183101 17 172 3.2 4.8 0.03 1.02 1.02 83 1010.6
20260505183001 17 172 1.6 4.8 0.03 1.02 1.02 83 1010.7
20260505182904 17 172 3.2 4.8 0.03 1.02 1.02 83 1010.7
20260505182800 17 172 3.2 4.8 0.03 1.02 1.02 83 1010.7
20260505182701 17 192 1.6 3.2 0.03 1.02 1.02 83 1010.6
20260505182603 17 192 1.6 3.2 0.03 1.02 1.02 83 1010.6
20260505182501 17 201 1.6 3.2 0.03 1.02 1.02 82 1010.6
20260505182401 17 201 1.6 3.2 0.03 1.02 1.02 82 1010.6
20260505182306 17 207 1.6 1.6 0.03 1.02 1.02 82 1010.7
20260505182100 17 207 1.6 3.2 0.03 1.02 1.02 81 1010.7
20260505181705 18 207 0.0 3.2 0.03 1.02 1.02 81 1010.6
20260505181601 18 207 0.0 3.2 0.03 1.02 1.02 81 1010.6
20260505181501 18 207 0.0 3.2 0.03 1.02 1.02 81 1010.6
20260505181403 18 207 0.0 4.8 0.03 1.02 1.02 80 1010.6
20260505181103 18 207 0.0 6.4 0.03 1.02 1.02 81 1010.6
20260505181001 18 207 0.0 6.4 0.03 1.02 1.02 80 1010.6
20260505180859 18 207 0.0 6.4 0.03 1.02 1.02 80 1010.6
20260505180700 18 207 1.6 8.0 0.03 1.02 1.02 80 1010.6
20260505180504 18 203 3.2 8.0 0.03 1.02 1.02 80 1010.6
20260505180401 18 202 4.8 8.0 0.03 1.02 1.02 79 1010.5
20260505180300 18 202 4.8 8.0 0.03 1.02 1.02 79 1010.6
20260505180200 18 202 1.6 8.0 0.03 1.02 1.02 79 1010.5
20260505180118 18 202 4.8 11.3 0.03 1.02 1.02 79 1010.5
20260505180005 18 202 4.8 11.3 0.03 1.02 1.02 79 1010.5
20260505175900 18 187 3.2 11.3 0.03 1.02 1.02 79 1010.5
20260505175804 18 196 6.4 14.5 0.03 1.02 1.02 79 1010.5
20260505175700 18 191 3.2 16.1 0.03 1.02 1.02 79 1010.5
20260505175600 18 234 4.8 16.1 0.03 1.02 1.02 79 1010.5
20260505175503 18 173 4.8 16.1 0.03 1.02 1.02 79 1010.5
20260505175400 18 172 4.8 16.1 0.03 1.02 1.02 79 1010.4
20260505175300 18 177 4.8 16.1 0.03 1.02 1.02 79 1010.3
20260505175203 18 144 3.2 16.1 0.03 1.02 1.02 79 1010.3
20260505175101 18 169 4.8 16.1 0.03 1.02 1.02 79 1010.3
20260505175001 18 144 4.8 16.1 0.03 1.02 1.02 79 1010.3
20260505174902 18 146 9.7 16.1 0.03 1.02 1.02 79 1010.2
20260505174800 18 154 9.7 16.1 0.03 1.02 1.02 79 1010.2
20260505174603 18 133 11.3 14.5 0.03 1.02 1.02 79 1010.2
20260505174501 18 144 12.9 14.5 0.03 1.02 1.02 79 1010.3
20260505174400 18 140 11.3 11.3 0.03 1.02 1.02 79 1010.3
20260505174303 18 134 9.7 11.3 0.03 1.02 1.02 79 1010.3
20260505174201 18 162 6.4 11.3 0.03 1.02 1.02 79 1010.4
20260505174100 18 156 3.2 11.3 0.03 1.02 1.02 79 1010.4
20260505174004 18 150 6.4 11.3 0.03 1.02 1.02 79 1010.4
20260505173900 18 140 8.0 11.3 0.03 1.02 1.02 79 1010.4
20260505173800 18 138 8.0 11.3 0.03 1.02 1.02 78 1010.5
20260505173703 18 156 4.8 9.7 0.03 1.02 1.02 78 1010.4
20260505173600 18 142 6.4 9.7 0.03 1.02 1.02 78 1010.5
20260505173500 18 145 1.6 9.7 0.03 1.02 1.02 77 1010.5
20260505173403 18 159 1.6 12.9 0.03 1.02 1.02 77 1010.5
20260505173300 18 163 3.2 12.9 0.03 1.02 1.02 77 1010.6
20260505173201 18 153 6.4 12.9 0.03 1.02 1.02 77 1010.6
20260505173103 19 162 3.2 12.9 0.00 0.99 0.99 76 1010.6
20260505172900 19 165 3.2 12.9 0.00 0.99 0.99 76 1010.6
20260505172804 19 186 4.8 12.9 0.00 0.99 0.99 75 1010.6
20260505172700 19 174 6.4 12.9 0.00 0.99 0.99 75 1010.6
20260505172601 19 182 8.0 12.9 0.00 0.99 0.99 75 1010.5
20260505172400 19 182 9.7 12.9 0.00 0.99 0.99 74 1010.5
20260505172100 19 161 6.4 12.9 0.00 0.99 0.99 74 1010.5
20260505171903 19 165 3.2 14.5 0.00 0.99 0.99 74 1010.4
20260505171800 19 155 4.8 14.5 0.00 0.99 0.99 74 1010.4
20260505171700 19 157 4.8 14.5 0.00 0.99 0.99 74 1010.4
20260505171605 19 206 8.0 14.5 0.00 0.99 0.99 74 1010.3
20260505171501 19 153 4.8 16.1 0.00 0.99 0.99 75 1010.4
20260505171400 19 147 8.0 16.1 0.00 0.99 0.99 74 1010.4
20260505171303 19 146 8.0 17.7 0.00 0.99 0.99 74 1010.4
20260505171200 19 142 6.4 17.7 0.00 0.99 0.99 74 1010.4
20260505171100 19 114 12.9 17.7 0.00 0.99 0.99 74 1010.4
20260505171005 19 139 9.7 17.7 0.00 0.99 0.99 74 1010.3
20260505170902 19 126 14.5 17.7 0.00 0.99 0.99 74 1010.3
20260505170801 19 136 12.9 17.7 0.00 0.99 0.99 73 1010.3
20260505170702 19 117 16.1 17.7 0.00 0.99 0.99 73 1010.3
20260505170600 20 131 11.3 17.7 0.00 0.99 0.99 73 1010.3
20260505170500 20 136 16.1 17.7 0.00 0.99 0.99 73 1010.4
20260505170403 20 123 14.5 17.7 0.00 0.99 0.99 73 1010.3
20260505170300 20 140 17.7 17.7 0.00 0.99 0.99 73 1010.3
20260505170201 20 123 16.1 16.1 0.00 0.99 0.99 73 1010.4
20260505170103 20 131 11.3 14.5 0.00 0.99 0.99 73 1010.3
20260505170005 20 138 12.9 14.5 0.00 0.99 0.99 73 1010.3
20260505165901 20 126 11.3 12.9 0.00 0.99 0.99 72 1010.4
20260505165804 20 128 9.7 12.9 0.00 0.99 0.99 72 1010.3
20260505165701 20 121 4.8 12.9 0.00 0.99 0.99 71 1010.3
20260505165600 20 128 9.7 12.9 0.00 0.99 0.99 71 1010.3
20260505165507 20 104 8.0 12.9 0.00 0.99 0.99 71 1010.3
20260505165359 20 136 8.0 12.9 0.00 0.99 0.99 72 1010.3
20260505165301 20 132 11.3 12.9 0.00 0.99 0.99 71 1010.2
20260505165217 21 137 8.0 9.7 0.00 0.99 0.99 71 1010.3
20260505164859 21 135 4.8 9.7 0.00 0.99 0.99 69 1010.3
20260505164804 21 194 4.8 9.7 0.00 0.99 0.99 69 1010.3
20260505164700 21 134 6.4 9.7 0.00 0.99 0.99 69 1010.2
20260505164504 21 128 3.2 9.7 0.00 0.99 0.99 67 1010.2
20260505164401 21 81 0.0 9.7 0.00 0.99 0.99 67 1010.2
20260505164300 21 102 3.2 9.7 0.00 0.99 0.99 67 1010.1
20260505164202 21 127 3.2 11.3 0.00 0.99 0.99 67 1010.1
20260505164002 21 173 3.2 11.3 0.00 0.99 0.99 67 1010.1
20260505163903 21 146 4.8 11.3 0.00 0.99 0.99 67 1010.1
20260505163800 21 143 1.6 11.3 0.00 0.99 0.99 68 1010.0
20260505163701 21 139 3.2 11.3 0.00 0.99 0.99 68 1010.0
20260505163604 21 136 6.4 11.3 0.00 0.99 0.99 67 1010.1
20260505163501 21 130 6.4 16.1 0.00 0.99 0.99 67 1010.1
20260505163401 21 157 4.8 16.1 0.00 0.99 0.99 67 1010.0
20260505163304 21 165 6.4 19.3 0.00 0.99 0.99 68 1010.0
20260505163159 21 149 8.0 19.3 0.00 0.99 0.99 67 1010.1
20260505163100 21 132 8.0 19.3 0.00 0.99 0.99 67 1010.1
20260505163007 21 136 6.4 19.3 0.00 0.99 0.99 69 1010.1
20260505162900 21 161 1.6 19.3 0.00 0.99 0.99 68 1010.1
20260505162800 21 156 3.2 19.3 0.00 0.99 0.99 68 1010.1
20260505162702 21 126 6.4 22.5 0.00 0.99 0.99 67 1010.0
20260505162559 21 181 3.2 24.1 0.00 0.99 0.99 68 1010.0
20260505162501 21 177 16.1 24.1 0.00 0.99 0.99 67 1010.0
20260505162402 21 170 8.0 24.1 0.00 0.99 0.99 68 1010.0
20260505162200 21 159 6.4 25.7 0.00 0.99 0.99 68 1010.0
20260505162103 21 173 9.7 25.7 0.00 0.99 0.99 67 1010.0
20260505162001 21 159 11.3 25.7 0.00 0.99 0.99 68 1010.0
20260505161900 21 149 4.8 25.7 0.00 0.99 0.99 68 1010.0
20260505161803 21 168 12.9 25.7 0.00 0.99 0.99 68 1010.0
20260505161359 21 203 8.0 25.7 0.00 0.99 0.99 68 1010.1
20260505161301 21 166 6.4 25.7 0.00 0.99 0.99 69 1010.1
20260505161204 21 174 25.7 25.7 0.00 0.99 0.99 69 1010.2
20260505161002 21 163 3.2 17.7 0.00 0.99 0.99 70 1010.2
20260505160801 21 140 8.0 22.5 0.00 0.99 0.99 69 1010.2
20260505160700 21 161 8.0 22.5 0.00 0.99 0.99 70 1010.2
20260505160603 21 156 11.3 22.5 0.00 0.99 0.99 70 1010.2
20260505160501 21 156 8.0 22.5 0.00 0.99 0.99 70 1010.2
20260505160400 21 151 6.4 22.5 0.00 0.99 0.99 70 1010.2
20260505160304 21 142 14.5 22.5 0.00 0.99 0.99 71 1010.2
20260505160201 21 109 14.5 22.5 0.00 0.99 0.99 70 1010.2
20260505160118 21 157 8.0 22.5 0.00 0.99 0.99 70 1010.2
20260505153302 21 163 6.4 24.1 0.00 0.99 0.99 71 1010.4
20260505153200 21 165 6.4 24.1 0.00 0.99 0.99 70 1010.4
20260505153100 21 156 6.4 24.1 0.00 0.99 0.99 70 1010.4
20260505153005 21 135 9.7 24.1 0.00 0.99 0.99 69 1010.4
20260505152900 22 136 9.7 24.1 0.00 0.99 0.99 69 1010.3
20260505152800 22 167 8.0 24.1 0.00 0.99 0.99 69 1010.4
20260505152704 22 155 8.0 24.1 0.00 0.99 0.99 68 1010.4
20260505152600 22 186 6.4 24.1 0.00 0.99 0.99 68 1010.4
20260505152500 22 176 6.4 24.1 0.00 0.99 0.99 68 1010.4
20260505152403 22 163 9.7 24.1 0.00 0.99 0.99 69 1010.4
20260505152300 22 178 9.7 22.5 0.00 0.99 0.99 69 1010.4
20260505152202 22 174 14.5 22.5 0.00 0.99 0.99 69 1010.4
20260505152103 22 172 8.0 22.5 0.00 0.99 0.99 70 1010.4
20260505152000 22 162 4.8 22.5 0.00 0.99 0.99 69 1010.4
20260505151900 22 146 8.0 22.5 0.00 0.99 0.99 69 1010.4
20260505151601 22 161 22.5 22.5 0.00 0.99 0.99 68 1010.4
20260505151504 22 161 8.0 20.9 0.00 0.99 0.99 69 1010.4
20260505151400 22 218 6.4 22.5 0.00 0.99 0.99 71 1010.4
20260505151203 22 163 11.3 19.3 0.00 0.99 0.99 72 1010.4
20260505151101 22 167 8.0 19.3 0.00 0.99 0.99 71 1010.4
20260505151002 22 157 4.8 19.3 0.00 0.99 0.99 71 1010.4
20260505150903 22 153 6.4 19.3 0.00 0.99 0.99 71 1010.4
20260505150800 22 155 12.9 19.3 0.00 0.99 0.99 71 1010.4
20260505150700 21 160 6.4 19.3 0.00 0.99 0.99 72 1010.4
20260505150603 21 134 14.5 19.3 0.00 0.99 0.99 72 1010.5
20260505150500 21 132 11.3 19.3 0.00 0.99 0.99 73 1010.5
20260505150400 21 160 4.8 19.3 0.00 0.99 0.99 72 1010.4
20260505150302 21 150 4.8 19.3 0.00 0.99 0.99 74 1010.5
20260505150159 21 152 11.3 19.3 0.00 0.99 0.99 74 1010.5
20260505140602 20 178 12.9 25.7 0.00 0.99 0.99 75 1011.1
20260505140503 20 186 20.9 25.7 0.00 0.99 0.99 75 1011.1
20260505140400 20 186 22.5 25.7 0.00 0.99 0.99 76 1011.1
20260505140305 20 170 19.3 20.9 0.00 0.99 0.99 77 1011.1
20260505140200 20 167 9.7 20.9 0.00 0.99 0.99 78 1011.1
20260505140122 20 179 19.3 20.9 0.00 0.99 0.99 80 1011.1
20260505130303 20 139 14.5 19.3 0.00 0.99 0.99 81 1011.5
20260505130159 20 150 9.7 19.3 0.00 0.99 0.99 80 1011.5
20260505125000 19 129 11.3 19.3 0.03 0.99 0.99 83 1011.6
20260505124902 19 143 17.7 17.7 0.03 0.99 0.99 83 1011.7
20260505124803 19 148 11.3 16.1 0.03 0.99 0.99 82 1011.7
20260505124700 19 130 11.3 16.1 0.03 0.99 0.99 82 1011.7
20260505124603 19 149 12.9 16.1 0.03 0.99 0.99 83 1011.7
20260505124505 19 119 11.3 16.1 0.03 0.99 0.99 83 1011.7
20260505124403 19 134 16.1 16.1 0.05 0.99 0.99 83 1011.7
20260505124302 19 138 9.7 14.5 0.05 0.99 0.99 82 1011.7
20260505124204 19 128 12.9 14.5 0.05 0.99 0.99 82 1011.7
20260505124100 19 102 6.4 14.5 0.05 0.99 0.99 82 1011.8
20260505124002 19 141 8.0 16.1 0.05 0.99 0.99 82 1011.8
20260505123904 19 127 14.5 17.7 0.05 0.99 0.99 82 1011.8
20260505123801 18 135 8.0 17.7 0.05 0.99 0.99 82 1011.9
20260505123703 18 159 4.8 17.7 0.05 0.99 0.99 81 1011.9
20260505123603 18 157 6.4 17.7 0.05 0.99 0.99 81 1011.9
20260505123459 18 201 6.4 17.7 0.05 0.99 0.99 81 1011.9
20260505123402 18 153 4.8 17.7 0.05 0.99 0.99 81 1012.0
20260505123302 18 149 4.8 17.7 0.05 0.99 0.99 81 1012.0
20260505123159 18 126 11.3 17.7 0.05 0.99 0.99 80 1011.9
20260505123105 18 133 12.9 17.7 0.05 0.99 0.99 80 1011.9
20260505122802 18 154 4.8 11.3 0.05 0.99 0.99 81 1011.9
20260505122703 18 153 9.7 12.9 0.05 0.99 0.99 80 1011.9
20260505122601 18 123 6.4 12.9 0.05 0.99 0.99 81 1011.9
20260505122502 18 126 6.4 12.9 0.05 0.99 0.99 80 1011.9
20260505122403 19 163 3.2 12.9 0.05 0.99 0.99 82 1011.9
20260505122259 18 172 4.8 12.9 0.05 0.99 0.99 82 1011.9
20260505122201 18 154 6.4 12.9 0.05 0.99 0.99 82 1011.9
20260505121903 18 175 4.8 12.9 0.05 0.99 0.99 82 1012.0
20260505121803 18 171 9.7 12.9 0.05 0.99 0.99 82 1012.0
20260505121702 18 196 6.4 11.3 0.05 0.99 0.99 82 1012.1
20260505121603 18 175 3.2 11.3 0.05 0.99 0.99 82 1012.0
20260505121504 18 174 6.4 9.7 0.05 0.99 0.99 82 1012.0
20260505121400 18 129 1.6 8.0 0.05 0.99 0.99 82 1012.0
20260505121202 18 188 4.8 8.0 0.05 0.99 0.99 83 1012.0
20260505120902 18 178 3.2 8.0 0.05 0.99 0.99 83 1011.9
20260505120800 18 196 3.2 8.0 0.05 0.99 0.99 83 1011.9
20260505120702 18 169 3.2 8.0 0.05 0.99 0.99 83 1011.9
20260505120603 18 175 6.4 9.7 0.05 0.99 0.99 82 1011.9
20260505120500 18 158 1.6 11.3 0.05 0.99 0.99 82 1011.9
20260505120402 18 173 3.2 11.3 0.05 0.99 0.99 82 1011.9
20260505120301 18 165 4.8 11.3 0.05 0.99 0.99 82 1011.9
20260505120200 18 173 6.4 12.9 0.05 0.99 0.99 82 1012.0
20260505120124 18 159 4.8 12.9 0.05 0.99 0.99 82 1011.9
20260505120009 18 136 3.2 12.9 0.05 0.99 0.99 81 1011.9
20260505115902 18 132 8.0 12.9 0.03 0.99 0.99 81 1011.9
20260505115705 18 136 3.2 12.9 0.03 0.99 0.99 81 1011.9
20260505115602 18 148 8.0 12.9 0.03 0.99 0.99 81 1011.9
20260505115505 18 135 9.7 12.9 0.03 0.99 0.99 81 1011.9
20260505115301 18 155 3.2 12.9 0.03 0.99 0.99 81 1011.9
20260505115200 18 130 9.7 12.9 0.03 0.99 0.99 81 1011.8
20260505115105 19 134 9.7 12.9 0.03 0.99 0.99 81 1011.8
20260505115003 19 137 9.7 12.9 0.03 0.99 0.99 81 1011.9
20260505114700 19 143 3.2 12.9 0.03 0.99 0.99 78 1011.9
20260505114601 19 143 4.8 12.9 0.03 0.99 0.99 78 1012.0
20260505114359 19 164 6.4 12.9 0.00 0.97 0.97 78 1011.9
20260505114259 19 178 8.0 12.9 0.00 0.97 0.97 76 1012.0
20260505114203 19 178 6.4 12.9 0.00 0.97 0.97 76 1012.0
20260505114059 19 190 6.4 12.9 0.00 0.97 0.97 76 1012.0
20260505114000 20 162 4.8 12.9 0.00 0.97 0.97 76 1012.0
20260505113906 20 182 9.7 12.9 0.00 0.97 0.97 75 1012.0
20260505113801 20 153 4.8 17.7 0.00 0.97 0.97 75 1012.0
20260505113659 20 171 4.8 17.7 0.00 0.97 0.97 75 1012.0
20260505113359 20 164 3.2 17.7 0.00 0.97 0.97 76 1012.0
20260505113302 20 164 3.2 17.7 0.00 0.97 0.97 76 1012.1
20260505113201 20 171 4.8 17.7 0.00 0.97 0.97 77 1012.1
20260505113005 20 169 4.8 17.7 0.00 0.97 0.97 77 1012.0
20260505112801 20 186 16.1 17.7 0.00 0.97 0.97 80 1012.1
20260505112702 20 148 4.8 17.7 0.00 0.97 0.97 79 1012.1
20260505112601 20 174 6.4 17.7 0.00 0.97 0.97 79 1012.1
20260505112501 20 150 6.4 14.5 0.00 0.97 0.97 80 1012.1
20260505112407 20 130 11.3 14.5 0.00 0.97 0.97 79 1012.1
20260505112300 20 131 11.3 14.5 0.00 0.97 0.97 78 1012.0
20260505112159 20 144 9.7 14.5 0.00 0.97 0.97 78 1012.0
20260505112102 20 146 4.8 14.5 0.00 0.97 0.97 79 1012.0
20260505112000 20 138 6.4 14.5 0.00 0.97 0.97 78 1012.0
20260505111802 20 153 6.4 14.5 0.00 0.97 0.97 77 1012.0
20260505111659 20 150 3.2 14.5 0.00 0.97 0.97 77 1012.0
20260505111559 20 128 12.9 14.5 0.00 0.97 0.97 77 1012.1
20260505111502 20 132 11.3 12.9 0.00 0.97 0.97 76 1012.1
20260505111359 20 146 9.7 12.9 0.00 0.97 0.97 76 1012.1
20260505111301 20 128 11.3 12.9 0.00 0.97 0.97 75 1012.0
20260505111204 20 158 8.0 12.9 0.00 0.97 0.97 75 1012.0
20260505111101 20 132 3.2 12.9 0.00 0.97 0.97 77 1012.1
20260505111002 20 128 8.0 12.9 0.00 0.97 0.97 77 1012.1
20260505110903 20 128 6.4 12.9 0.00 0.97 0.97 77 1012.0
20260505110800 20 134 8.0 14.5 0.00 0.97 0.97 78 1012.0
20260505110659 20 128 9.7 12.9 0.00 0.97 0.97 78 1012.0
20260505110605 20 138 6.4 12.9 0.00 0.97 0.97 79 1012.0
20260505110503 20 132 8.0 14.5 0.00 0.97 0.97 78 1012.0
20260505110402 20 129 6.4 14.5 0.00 0.97 0.97 77 1012.0
20260505110306 20 128 3.2 14.5 0.00 0.97 0.97 77 1012.0
20260505102200 18 74 6.4 8.0 0.00 0.97 0.97 80 1012.3
20260505102102 18 74 6.4 6.4 0.00 0.97 0.97 80 1012.4
20260505102001 18 74 3.2 6.4 0.00 0.97 0.97 80 1012.3
20260505101905 18 74 4.8 9.7 0.00 0.97 0.97 79 1012.3
20260505101803 18 74 1.6 9.7 0.00 0.97 0.97 79 1012.3
20260505101600 18 74 1.6 9.7 0.00 0.97 0.97 79 1012.3
20260505101503 18 74 1.6 9.7 0.00 0.97 0.97 79 1012.3
20260505101359 18 74 3.2 9.7 0.00 0.97 0.97 78 1012.3
20260505101259 18 74 3.2 9.7 0.00 0.97 0.97 78 1012.3
20260505101202 18 74 4.8 9.7 0.00 0.97 0.97 78 1012.3
20260505101059 18 35 0.0 14.5 0.00 0.97 0.97 78 1012.3
20260505100801 18 57 8.0 14.5 0.00 0.97 0.97 79 1012.3
20260505100700 18 82 11.3 16.1 0.00 0.97 0.97 78 1012.3
20260505100500 18 76 3.2 16.1 0.00 0.97 0.97 79 1012.3
20260505100359 18 76 3.2 16.1 0.00 0.97 0.97 79 1012.4
20260505100302 18 76 4.8 16.1 0.00 0.97 0.97 79 1012.4
20260505100201 18 85 9.7 16.1 0.00 0.97 0.97 78 1012.4
20260505100128 18 98 8.0 16.1 0.00 0.97 0.97 78 1012.4
20260505095900 19 74 4.8 16.1 0.00 0.97 0.97 78 1012.4
20260505095800 19 80 9.7 16.1 0.00 0.97 0.97 79 1012.4
20260505095707 19 72 14.5 16.1 0.00 0.97 0.97 78 1012.4
20260505095603 19 34 6.4 14.5 0.00 0.97 0.97 79 1012.3
20260505095502 19 42 6.4 14.5 0.00 0.97 0.97 82 1012.4
20260505095404 19 47 4.8 14.5 0.00 0.97 0.97 82 1012.3
20260505095304 19 59 8.0 14.5 0.00 0.97 0.97 82 1012.4
20260505095202 19 44 12.9 14.5 0.00 0.97 0.97 82 1012.4
20260505095105 18 43 4.8 12.9 0.00 0.97 0.97 82 1012.4
20260505095004 18 51 6.4 11.3 0.00 0.97 0.97 82 1012.3
20260505094901 18 103 8.0 12.9 0.00 0.97 0.97 81 1012.3
20260505094805 18 80 1.6 12.9 0.00 0.97 0.97 82 1012.3
20260505094600 18 50 4.8 9.7 0.00 0.97 0.97 83 1012.5
20260505094503 18 46 4.8 11.3 0.00 0.97 0.97 82 1012.5
20260505094403 17 80 4.8 11.3 0.00 0.97 0.97 81 1012.5
20260505094301 17 69 3.2 11.3 0.00 0.97 0.97 81 1012.5
20260505094203 17 98 4.8 11.3 0.00 0.97 0.97 80 1012.5
20260505094101 17 94 8.0 11.3 0.00 0.97 0.97 81 1012.4
20260505094001 17 60 3.2 12.9 0.00 0.97 0.97 80 1012.5
20260505093906 17 104 3.2 12.9 0.00 0.97 0.97 81 1012.5
20260505093800 17 104 3.2 12.9 0.00 0.97 0.97 81 1012.5
20260505093702 17 104 3.2 12.9 0.00 0.97 0.97 80 1012.5
20260505093603 17 113 4.8 12.9 0.00 0.97 0.97 80 1012.5
20260505093501 17 96 4.8 16.1 0.00 0.97 0.97 81 1012.5
20260505093302 17 132 6.4 16.1 0.00 0.97 0.97 80 1012.5
20260505093159 17 113 6.4 16.1 0.00 0.97 0.97 81 1012.5
20260505093100 18 112 8.0 16.1 0.00 0.97 0.97 82 1012.5
20260505093006 17 105 12.9 16.1 0.00 0.97 0.97 82 1012.5
20260505092859 18 144 1.6 16.1 0.00 0.97 0.97 83 1012.4
20260505092759 17 107 6.4 16.1 0.00 0.97 0.97 83 1012.4
20260505092702 17 99 8.0 16.1 0.00 0.97 0.97 84 1012.4
20260505092600 17 111 12.9 16.1 0.00 0.97 0.97 84 1012.3
20260505092459 17 116 6.4 14.5 0.00 0.97 0.97 84 1012.4
20260505092402 17 86 4.8 14.5 0.00 0.97 0.97 85 1012.4
20260505092259 17 96 12.9 14.5 0.00 0.97 0.97 85 1012.4
20260505092159 17 96 9.7 14.5 0.00 0.97 0.97 85 1012.4
20260505092103 17 76 12.9 14.5 0.00 0.97 0.97 86 1012.4
20260505092002 17 130 8.0 16.1 0.00 0.97 0.97 85 1012.4
20260505091802 17 91 11.3 16.1 0.00 0.97 0.97 86 1012.4
20260505091659 17 94 12.9 16.1 0.00 0.97 0.97 87 1012.4
20260505091600 17 66 11.3 16.1 0.00 0.97 0.97 87 1012.4
20260505091506 17 71 14.5 16.1 0.00 0.97 0.97 87 1012.4
20260505091400 17 117 8.0 16.1 0.00 0.97 0.97 87 1012.5
20260505091259 17 103 8.0 16.1 0.00 0.97 0.97 88 1012.4
20260505091203 17 90 4.8 16.1 0.00 0.97 0.97 88 1012.4
20260505091059 17 86 12.9 16.1 0.00 0.97 0.97 88 1012.4
20260505091000 17 90 8.0 16.1 0.00 0.97 0.97 87 1012.4
20260505090902 17 62 6.4 16.1 0.00 0.97 0.97 87 1012.4
20260505090759 17 90 9.7 16.1 0.00 0.97 0.97 87 1012.4
20260505090659 17 97 11.3 16.1 0.00 0.97 0.97 88 1012.4
20260505090602 17 115 12.9 16.1 0.00 0.97 0.97 89 1012.5
20260505090359 17 109 12.9 16.1 0.00 0.97 0.97 90 1012.4
20260505090302 17 55 11.3 16.1 0.00 0.97 0.97 90 1012.5
20260505090200 17 48 11.3 16.1 0.00 0.97 0.97 91 1012.5
20260505090101 17 72 11.3 16.1 0.00 0.97 0.97 91 1012.5
20260505090007 17 92 8.0 14.5 0.00 0.97 0.97 91 1012.5
20260505085702 16 69 11.3 14.5 0.00 0.97 0.97 91 1012.5
20260505085559 16 103 3.2 14.5 0.00 0.97 0.97 91 1012.6
20260505085402 16 101 8.0 16.1 0.00 0.97 0.97 91 1012.6
20260505085300 16 76 4.8 16.1 0.00 0.97 0.97 91 1012.6
20260505085103 16 63 6.4 16.1 0.00 0.97 0.97 91 1012.6
20260505085000 16 74 11.3 16.1 0.00 0.97 0.97 91 1012.5
20260505084859 16 71 11.3 16.1 0.00 0.97 0.97 91 1012.4
20260505084802 16 74 8.0 16.1 0.00 0.97 0.97 91 1012.4
20260505084659 16 78 14.5 16.1 0.00 0.97 0.97 92 1012.3
20260505084509 16 76 14.5 16.1 0.00 0.97 0.97 92 1012.3
20260505084402 16 69 16.1 16.1 0.00 0.97 0.97 92 1012.4
20260505084302 16 75 16.1 16.1 0.00 0.97 0.97 92 1012.5
20260505084202 16 46 8.0 14.5 0.00 0.97 0.97 92 1012.5
20260505084059 16 93 8.0 14.5 0.00 0.97 0.97 92 1012.5
20260505084002 16 71 11.3 14.5 0.00 0.97 0.97 92 1012.5
20260505083907 16 44 4.8 14.5 0.00 0.97 0.97 92 1012.5
20260505083703 16 70 6.4 14.5 0.00 0.97 0.97 93 1012.6
20260505083604 16 71 6.4 16.1 0.00 0.97 0.97 93 1012.6
20260505083501 16 90 9.7 16.1 0.00 0.97 0.97 93 1012.6
20260505083400 16 67 14.5 16.1 0.00 0.97 0.97 93 1012.5
20260505083304 16 93 11.3 16.1 0.00 0.97 0.97 93 1012.5
20260505083100 16 87 9.7 16.1 0.00 0.97 0.97 93 1012.5
20260505083006 16 71 3.2 16.1 0.00 0.97 0.97 94 1012.5
20260505082859 16 102 11.3 16.1 0.00 0.97 0.97 94 1012.5
20260505082706 15 77 14.5 16.1 0.00 0.97 0.97 94 1012.5
20260505082600 15 91 4.8 16.1 0.00 0.97 0.97 94 1012.5
20260505082404 15 66 12.9 16.1 0.00 0.97 0.97 95 1012.5
20260505082301 15 63 11.3 12.9 0.00 0.97 0.97 94 1012.5
20260505082159 15 77 11.3 12.9 0.00 0.97 0.97 94 1012.5
20260505082103 15 67 11.3 12.9 0.00 0.97 0.97 94 1012.5
20260505082002 15 74 6.4 12.9 0.00 0.97 0.97 94 1012.5
20260505081859 15 90 8.0 12.9 0.00 0.97 0.97 94 1012.6
20260505081802 15 113 6.4 12.9 0.00 0.97 0.97 94 1012.5
20260505081659 15 108 8.0 12.9 0.00 0.97 0.97 94 1012.5
20260505081602 15 92 8.0 12.9 0.00 0.97 0.97 94 1012.5
20260505081501 15 92 11.3 16.1 0.00 0.97 0.97 94 1012.5
20260505081200 15 96 9.7 16.1 0.00 0.97 0.97 94 1012.5
20260505081106 15 90 8.0 16.1 0.00 0.97 0.97 95 1012.5
20260505080900 15 57 4.8 16.1 0.00 0.97 0.97 95 1012.4
20260505080802 15 120 3.2 16.1 0.00 0.97 0.97 95 1012.4
20260505080700 14 112 12.9 16.1 0.00 0.97 0.97 94 1012.4
20260505080601 14 101 8.0 16.1 0.00 0.97 0.97 94 1012.4
20260505080503 14 101 9.7 14.5 0.00 0.97 0.97 94 1012.4
20260505080400 14 96 11.3 14.5 0.00 0.97 0.97 94 1012.3
20260505080301 14 107 11.3 14.5 0.00 0.97 0.97 94 1012.4
20260505080202 14 117 8.0 14.5 0.00 0.97 0.97 94 1012.4
20260505080119 14 92 9.7 12.9 0.00 0.97 0.97 94 1012.4
20260505080005 14 124 6.4 12.9 0.00 0.97 0.97 94 1012.4
20260505075906 14 129 6.4 12.9 0.00 0.97 0.97 94 1012.4
20260505075700 14 136 6.4 12.9 0.00 0.97 0.97 94 1012.4
20260505075603 14 131 8.0 12.9 0.03 0.97 0.97 94 1012.5
20260505075501 14 130 6.4 12.9 0.03 0.97 0.97 94 1012.4
20260505075304 14 115 11.3 12.9 0.03 0.97 0.97 94 1012.5
20260505075200 14 113 8.0 11.3 0.03 0.97 0.97 94 1012.6
20260505075104 14 112 11.3 11.3 0.03 0.97 0.97 94 1012.5
20260505075005 14 104 4.8 9.7 0.03 0.97 0.97 94 1012.5
20260505074900 14 113 6.4 12.9 0.05 0.97 0.97 94 1012.5
20260505074800 13 82 4.8 12.9 0.05 0.97 0.97 94 1012.6
20260505074600 13 114 3.2 12.9 0.08 0.97 0.97 94 1012.5
20260505074500 14 89 4.8 12.9 0.10 0.97 0.97 94 1012.6
20260505074402 13 96 8.0 12.9 0.10 0.97 0.97 94 1012.5
20260505074300 13 125 3.2 12.9 0.13 0.97 0.97 94 1012.6
20260505074200 14 121 4.8 12.9 0.15 0.97 0.97 94 1012.5
20260505074103 14 113 4.8 12.9 0.18 0.97 0.97 94 1012.5
20260505074001 14 88 8.0 12.9 0.20 0.97 0.97 94 1012.5
20260505073900 13 118 11.3 12.9 0.23 0.97 0.97 94 1012.5
20260505073802 13 122 4.8 12.9 0.30 0.97 0.97 94 1012.5
20260505073701 13 93 8.0 12.9 0.33 0.97 0.97 94 1012.5
20260505073601 13 119 6.4 12.9 0.36 0.97 0.97 94 1012.4
20260505073503 13 123 6.4 12.9 0.38 0.97 0.97 94 1012.4
20260505073401 13 130 6.4 9.7 0.41 0.97 0.97 94 1012.4
20260505073300 13 109 6.4 9.7 0.43 0.97 0.97 94 1012.3
20260505073206 13 128 8.0 9.7 0.43 0.97 0.97 94 1012.3
20260505073101 13 130 6.4 9.7 0.46 0.97 0.97 94 1012.4
20260505072905 13 108 4.8 8.0 0.48 0.97 0.97 94 1012.4
20260505072800 13 96 4.8 8.0 0.53 0.97 0.97 94 1012.4
20260505072700 13 104 4.8 9.7 0.56 0.97 0.97 94 1012.4
20260505072604 13 97 8.0 9.7 0.56 0.97 0.97 94 1012.4
20260505072501 13 104 4.8 9.7 0.58 0.97 0.97 94 1012.5
20260505072402 13 94 8.0 8.0 0.58 0.97 0.97 94 1012.5
20260505072305 13 117 3.2 8.0 0.58 0.97 0.97 94 1012.5
20260505072201 13 95 4.8 8.0 0.61 0.97 0.97 94 1012.5
20260505072102 13 75 3.2 8.0 0.61 0.97 0.97 94 1012.5
20260505072005 13 75 6.4 8.0 0.61 0.97 0.97 93 1012.5
20260505071903 13 74 6.4 9.7 0.64 0.97 0.97 93 1012.6
20260505071801 13 78 1.6 9.7 0.66 0.97 0.97 93 1012.6
20260505071705 13 78 3.2 9.7 0.66 0.97 0.97 93 1012.6
20260505071601 13 92 3.2 9.7 0.69 0.97 0.97 93 1012.7
20260505071500 13 92 1.6 9.7 0.71 0.97 0.97 93 1012.7
20260505071300 13 92 1.6 9.7 0.71 0.97 0.97 93 1012.8
20260505071203 13 92 3.2 9.7 0.71 0.97 0.97 93 1012.8
20260505071104 13 79 8.0 9.7 0.74 0.97 0.97 93 1012.7
20260505071002 13 101 4.8 9.7 0.74 0.97 0.97 93 1012.8
20260505070901 13 103 6.4 8.0 0.74 0.97 0.97 93 1012.8
20260505070806 13 119 4.8 8.0 0.74 0.97 0.97 93 1012.8
20260505070704 13 118 4.8 8.0 0.76 0.97 0.97 93 1013.0
20260505070601 13 130 4.8 8.0 0.79 0.97 0.97 93 1013.0
20260505070503 13 244 1.6 8.0 0.79 0.97 0.97 93 1013.0
20260505070400 13 265 0.0 8.0 0.79 0.97 0.97 93 1013.0
20260505070259 13 265 0.0 8.0 0.79 0.97 0.97 92 1013.0
20260505070203 13 265 3.2 8.0 0.79 0.97 0.97 92 1013.0
20260505070005 13 263 4.8 8.0 0.79 0.97 0.97 92 1013.1
20260505065903 13 265 4.8 8.0 0.79 0.97 0.97 92 1013.1
20260505065800 13 260 4.8 8.0 0.79 0.97 0.97 92 1013.0
20260505065700 13 259 8.0 8.0 0.79 0.97 0.97 92 1013.0
20260505065603 13 269 3.2 8.0 0.79 0.94 0.94 92 1013.1
20260505065500 13 267 3.2 6.4 0.79 0.94 0.94 92 1013.1
20260505065400 13 265 3.2 6.4 0.79 0.94 0.94 92 1013.1
20260505065303 13 258 4.8 6.4 0.79 0.94 0.94 92 1013.1
20260505065200 13 257 3.2 6.4 0.79 0.94 0.94 92 1013.1
20260505065100 13 243 4.8 6.4 0.79 0.94 0.94 92 1013.1
20260505065005 13 264 1.6 6.4 0.79 0.91 0.91 92 1013.1
20260505064800 13 248 3.2 6.4 0.79 0.89 0.89 92 1013.2
20260505064703 13 248 4.8 6.4 0.76 0.89 0.89 92 1013.2
20260505064500 13 248 3.2 4.8 0.74 0.86 0.86 91 1013.1